Regional Weather Roundup
Issued by NWS Kansas City/Pleasant Hill, MO

Home | Current Version | Previous Version | Text Only | Print | Product List | Glossary On
Versions: 1 2 3 4 5 6 7 8 9 10 11 12 13 14 15 16 17 18 19 20 21 22 23 24 25
000
ASUS43 KEAX 181910
RWREAX

WEATHER ROUNDUP FOR EASTERN KANSAS AND NORTHWEST MISSOURI
NATIONAL WEATHER SERVICE KANSAS CITY/PLEASANT HILL MO
100 PM CST SUN FEB 18 2018

KSZ040-057-103>105-MOZ028-029-037-043-182000-
...KANSAS CITY METROPOLITAN AREA...

CITY           SKY/WX    TMP DP  RH WIND       PRES   REMARKS
K.C. INTL      CLOUDY    53  24  32 S22G35    29.87F
K.C. DOWNTOWN  MOSUNNY   55  26  32 S20G29    29.90F
LEES SUMMIT    CLOUDY    53  27  36 S20G33    29.92F
OLATHE - IXD   CLOUDY    52  25  35 S28G38    29.90F
OLATHE - OJC   CLOUDY    51  26  37 S26       29.89F
LAWRENCE       PTSUNNY   54  26  34 S24G38    29.87F

$$

MOZ001>008-011>017-020>025-030>033-038>040-044>046-053-054-182000-
...NORTHERN AND CENTRAL MISSOURI...

CITY           SKY/WX    TMP DP  RH WIND       PRES   REMARKS
ST. JOSEPH     CLOUDY    55  24  30 S28G40    29.82F
MOSBY          PTCLDY    52  27  37 S18G28    29.91F
WARRENSBURG    CLOUDY    54  27  35 S17G30    29.96F
WHITEMAN AFB   PTSUNNY   54  28  37 S25       29.92F
CLINTON        CLOUDY    54  28  37 S21G26    29.98F
SEDALIA        CLOUDY    56  27  32 S25G33    29.99F
WARSAW         NOT AVBL
CHILLICOTHE      N/A     52  28  39 S22G31    29.91F
KIRKSVILLE     CLOUDY    51  27  39 S23       29.95F

$$

MOZ041-047>049-056>058-063>065-088>090-097-182000-
...EASTERN AND SOUTHERN MISSOURI...

CITY           SKY/WX    TMP DP  RH WIND       PRES   REMARKS
ST. LOUIS INTL CLOUDY    50  26  39 S21       30.12F
SPIRIT OF STL  MOSUNNY   51  29  42 SE9G21    30.10F
COLUMBIA       CLOUDY    53  27  36 S23G33    30.02F
JEFFERSON CITY CLOUDY    53  26  35 S20G31    30.04F
ROLLA          CLOUDY    50  29  44 S22G32    30.07F
OSAGE BEACH    CLOUDY    53  32  44 SE10G20   30.05F
SPRINGFIELD    PTSUNNY   50  33  52 S22G35    30.02F
BRANSON        CLOUDY    52  32  46 SE13G23   30.08F
JOPLIN         MOSUNNY   57  30  35 S17G25    29.97F
WEST PLAINS    CLOUDY    48  34  58 SE12G20   30.12F

$$

IAZ060-094-KSZ022-034>040-054-083-096-NEZ052-066-093-182000-
...KANSAS...SOUTHEAST NEBRASKA AND IOWA...

CITY           SKY/WX    TMP DP  RH WIND       PRES   REMARKS
TOPEKA         CLOUDY    54  30  40 S18G33    29.83F
MANHATTAN      MOSUNNY   57  33  40 S28G40    29.75F
EMPORIA        CLOUDY    50  36  58 S26G35    29.86F
CHANUTE        SUNNY     53  36  52 S25G36    29.93F
WICHITA        PTSUNNY   53  42  66 S30G36    29.80F
OMAHA          PTSUNNY   54  24  31 S38G54    29.64F
LINCOLN        MOSUNNY   56  29  35 S28G41    29.64F
FALLS CITY     CLOUDY    55  23  28 S25G44    29.76F
LAMONI         CLOUDY    50  26  39 S23G35    29.83F
DES MOINES     CLOUDY    51  26  37 S23G33    29.79F

$$





USA.gov is the U.S. government's official web portal to all federal, state and local government web resources and services.